Weather in Roskilde

Denmark     55°38′29″N   12°04′50″E
temp.,
°C
wind,
m/s
gust,
m/s
humid.,
%
clouds,
%
prec.,
mm/h
press.,
hPa
HPBL,
m
14 may, fri
fri1423:00+11n359460 0.1 1004158
02:00+9ne339796 0.1 100462
05:00+9ene119440 0.0 100310
08:00+12nnw1184100 0.0 100397
11:00+13e1274100 0.0 1004282
14:00+13sse347597 0.0 1003181
17:00+14sse3469100 0.0 1004299
20:00+12s3683100 0.0 1003230
15 may, sat
sat1523:00+10ssw3694100 0.0 1003164
02:00+10wsw4892100 0.0 1003341
05:00+9wsw5990100 0.0 1002485
08:00+9wsw5888100 0.0 1003534
11:00+11wsw577273 0.0 1003761
14:00+15wsw57572 0.0 10031211
17:00+15wsw34595 0.0 10031204
20:00+12sse4781100 0.3 1003300
16 may, sun
sun1623:00+10sse2486100 0.1 1003125
02:00+9ese259197 0.1 1002228
05:00+7se349718 0.1 100291
08:00+11sse4685100 0.1 1002354
11:00+12sse4676100 0.1 1002702
14:00+10sse4692100 1.6 1002381
17:00+10se359286 1.9 1001319
20:00+10ssw369048 2.6 1000352
17 may, mon
mon1723:00+7s35955 0.1 1001114
02:00+7sse359564 0.1 1001106
05:00+7ssw349642 0.0 100088
08:00+10ssw468952 0.0 1001436
11:00+14ssw576419 0.1 10011220
14:00+14ssw456592 0.9 10011221
17:00+13s457471 1.4 1002907
20:00+11s4789100 2.8 1002341
18 may, tue
tue1823:00+9s3796100 0.4 1002387
02:00+9sse259785 0.5 1002228
05:00+9ssw239793 0.1 1002182
08:00+10wsw349192 0.1 1003362
11:00+12nw558587 0.6 1004739
14:00+13nw346715 0.9 1005982
17:00+14wnw456113 0.2 10051166
20:00+12wsw3580100 0.5 1006172